This is the latest recevied weather packets stored in our database for station/object K7TUS-6. If no packets are shown the sender has not sent any weather packets the latest 10 day(s).
| Time | Temp. | Humidity | Pressure | Rain* | Wind** | Luminosity | Snow |
|---|---|---|---|---|---|---|---|
| 1778174109 | 17.78° C | 1% | 985.3 hPa | - | - | - | - |
| 1778173808 | 17.78° C | 1% | 984.8 hPa | - | - | - | - |
| 1778173507 | 17.78° C | 1% | 985.1 hPa | - | - | - | - |
| 1778173207 | 17.78° C | 1% | 985.8 hPa | - | - | - | - |
| 1778172906 | 17.78° C | 1% | 985.4 hPa | - | - | - | - |
| 1778172606 | 18.33° C | 1% | 985.5 hPa | - | - | - | - |
| 1778172305 | 17.78° C | 1% | 985.1 hPa | - | - | - | - |
| 1778172004 | 18.33° C | 1% | 986.6 hPa | - | - | - | - |
| 1778171704 | 17.78° C | 1% | 986.3 hPa | - | - | - | - |
| 1778171404 | 17.22° C | 1% | 986.4 hPa | - | - | - | - |
| 1778171102 | 17.22° C | 1% | 986.2 hPa | - | - | - | - |
| 1778170808 | 17.22° C | 1% | 985.4 hPa | - | - | - | - |
| 1778170507 | 17.22° C | 1% | 985.6 hPa | - | - | - | - |
| 1778170207 | 16.67° C | 1% | 985.7 hPa | - | - | - | - |
| 1778169906 | 16.11° C | 1% | 985.6 hPa | - | - | - | - |
| 1778169606 | 16.11° C | 1% | 984.8 hPa | - | - | - | - |
| 1778169305 | 15.56° C | 1% | 985.5 hPa | - | - | - | - |
| 1778169004 | 15.56° C | 1% | 985.2 hPa | - | - | - | - |
| 1778168704 | 15.56° C | 1% | 986.1 hPa | - | - | - | - |
| 1778168403 | 15° C | 1% | 985.4 hPa | - | - | - | - |
| 1778168108 | 15° C | 1% | 984.2 hPa | - | - | - | - |
| 1778167808 | 15° C | 1% | 983.8 hPa | - | - | - | - |
| 1778167507 | 14.44° C | 1% | 985.2 hPa | - | - | - | - |
| 1778167207 | 14.44° C | 1% | 984.8 hPa | - | - | - | - |
| 1778166906 | 13.89° C | 1% | 984.9 hPa | - | - | - | - |
* Rain since midnight (hover to see other rain measurements)
** Current wind speed in m/s (hover to see current wind gust speed)